| time (UTC) | temp F | wind direction | speed knots | gust knots | rain 1hr in | rain 24hr in | rain mn in | humidity % | barometer mb |
| 20260506021605 | 50 | 0 | 0.0 | 0.9 | 0.00 | 0.12 | 0.12 | 57 | 1017.9 |
| 20260506021057 | 50 | 0 | 0.0 | 1.7 | 0.00 | 0.12 | 0.12 | 58 | 1017.7 |
| 20260506020559 | 50 | 258 | 0.0 | 1.7 | 0.00 | 0.12 | 0.12 | 57 | 1017.7 |
| 20260506015557 | 51 | 194 | 0.0 | 1.7 | 0.00 | 0.15 | 0.12 | 56 | 1017.6 |
| 20260506015057 | 51 | 150 | 0.0 | 0.9 | 0.00 | 0.15 | 0.12 | 56 | 1017.6 |
| 20260506014600 | 52 | 0 | 0.0 | 1.7 | 0.00 | 0.15 | 0.12 | 55 | 1017.5 |
| 20260506014056 | 52 | 250 | 0.0 | 1.7 | 0.00 | 0.15 | 0.12 | 54 | 1017.5 |
| 20260506013556 | 52 | 0 | 0.0 | 1.7 | 0.00 | 0.15 | 0.12 | 54 | 1017.4 |
| 20260506013107 | 52 | 298 | 0.0 | 1.7 | 0.00 | 0.15 | 0.12 | 53 | 1017.4 |
| 20260506012556 | 53 | 0 | 0.0 | 1.7 | 0.00 | 0.15 | 0.12 | 53 | 1017.3 |
| 20260506012100 | 53 | 317 | 0.0 | 4.3 | 0.00 | 0.15 | 0.12 | 52 | 1017.3 |
| 20260506011601 | 53 | 0 | 0.0 | 4.3 | 0.00 | 0.15 | 0.12 | 51 | 1017.3 |
| 20260506011057 | 54 | 304 | 0.9 | 2.6 | 0.00 | 0.15 | 0.12 | 47 | 1017.3 |
| 20260506010557 | 56 | 5 | 0.9 | 4.3 | 0.00 | 0.15 | 0.12 | 47 | 1017.3 |
| 20260506010058 | 55 | 0 | 0.9 | 4.3 | 0.00 | 0.15 | 0.12 | 45 | 1017.0 |
| 20260506005556 | 56 | 0 | 0.9 | 5.2 | 0.00 | 0.15 | 0.12 | 47 | 1017.0 |
| 20260506005057 | 56 | 310 | 0.9 | 5.2 | 0.00 | 0.15 | 0.12 | 47 | 1016.9 |
| 20260506004604 | 55 | 0 | 0.0 | 3.5 | 0.00 | 0.15 | 0.12 | 49 | 1016.8 |
| 20260506004057 | 55 | 299 | 0.9 | 3.5 | 0.00 | 0.15 | 0.12 | 49 | 1016.8 |
| 20260506003601 | 55 | 317 | 0.9 | 3.5 | 0.00 | 0.15 | 0.12 | 49 | 1016.8 |
| 20260506003118 | 55 | 0 | 0.9 | 3.5 | 0.00 | 0.15 | 0.12 | 49 | 1016.8 |
| 20260506002558 | 54 | 0 | 0.9 | 2.6 | 0.00 | 0.15 | 0.12 | 53 | 1016.8 |
| 20260506002056 | 53 | 0 | 0.9 | 4.3 | 0.00 | 0.15 | 0.12 | 55 | 1016.8 |
| 20260506001611 | 53 | 285 | 0.0 | 4.3 | 0.00 | 0.15 | 0.12 | 55 | 1016.8 |
| 20260506001057 | 53 | 302 | 0.9 | 3.5 | 0.00 | 0.15 | 0.12 | 57 | 1016.6 |
| 20260506000557 | 52 | 295 | 0.9 | 3.5 | 0.00 | 0.15 | 0.12 | 57 | 1016.7 |
| 20260506000112 | 52 | 220 | 0.9 | 3.5 | 0.00 | 0.15 | 0.12 | 57 | 1016.8 |
| 20260505235557 | 52 | 198 | 0.0 | 6.1 | 0.00 | 0.15 | 0.12 | 56 | 1016.7 |
| 20260505235057 | 53 | 0 | 1.7 | 6.1 | 0.00 | 0.15 | 0.12 | 55 | 1016.8 |
| 20260505234613 | 53 | 215 | 0.9 | 5.2 | 0.00 | 0.15 | 0.12 | 55 | 1016.7 |
| 20260505234059 | 54 | 315 | 0.9 | 4.3 | 0.00 | 0.15 | 0.12 | 56 | 1016.7 |
| 20260505233557 | 54 | 0 | 0.9 | 3.5 | 0.00 | 0.15 | 0.12 | 57 | 1016.5 |
| 20260505233100 | 53 | 138 | 0.9 | 7.0 | 0.00 | 0.15 | 0.12 | 57 | 1016.5 |
| 20260505232557 | 53 | 0 | 1.7 | 7.0 | 0.00 | 0.15 | 0.12 | 55 | 1016.6 |
| 20260505232059 | 54 | 316 | 0.9 | 7.0 | 0.00 | 0.15 | 0.12 | 57 | 1016.5 |
| 20260505231600 | 53 | 184 | 1.7 | 5.2 | 0.00 | 0.15 | 0.12 | 58 | 1016.5 |
| 20260505231057 | 52 | 0 | 0.9 | 7.8 | 0.00 | 0.15 | 0.12 | 55 | 1016.5 |
| 20260505230559 | 52 | 145 | 1.7 | 7.8 | 0.00 | 0.15 | 0.12 | 57 | 1016.6 |
| 20260505230058 | 52 | 315 | 1.7 | 5.2 | 0.00 | 0.15 | 0.12 | 57 | 1016.5 |
| 20260505225559 | 53 | 229 | 0.0 | 5.2 | 0.00 | 0.15 | 0.12 | 49 | 1016.5 |
| 20260505225058 | 53 | 280 | 1.7 | 5.2 | 0.00 | 0.15 | 0.12 | 48 | 1016.3 |
| 20260505224557 | 53 | 332 | 2.6 | 5.2 | 0.00 | 0.15 | 0.12 | 47 | 1016.3 |
| 20260505224056 | 54 | 315 | 0.9 | 3.5 | 0.00 | 0.15 | 0.12 | 47 | 1016.1 |
| 20260505223556 | 54 | 312 | 0.9 | 4.3 | 0.00 | 0.15 | 0.12 | 47 | 1016.2 |
| 20260505223108 | 54 | 59 | 1.7 | 4.3 | 0.00 | 0.15 | 0.12 | 48 | 1016.4 |
| 20260505222556 | 54 | 142 | 0.9 | 4.3 | 0.00 | 0.15 | 0.12 | 49 | 1016.4 |
| 20260505222056 | 55 | 354 | 0.9 | 4.3 | 0.00 | 0.15 | 0.12 | 48 | 1016.3 |
| 20260505221557 | 54 | 0 | 1.7 | 6.1 | 0.00 | 0.15 | 0.12 | 47 | 1016.4 |
| 20260505221058 | 54 | 49 | 2.6 | 6.1 | 0.00 | 0.15 | 0.12 | 49 | 1016.4 |
| 20260505220557 | 55 | 293 | 1.7 | 4.3 | 0.00 | 0.15 | 0.12 | 47 | 1016.5 |
| 20260505220100 | 54 | 60 | 0.9 | 4.3 | 0.00 | 0.15 | 0.12 | 50 | 1016.5 |
| 20260505215602 | 53 | 353 | 1.7 | 6.1 | 0.00 | 0.15 | 0.12 | 51 | 1016.5 |
| 20260505215057 | 53 | 47 | 1.7 | 6.1 | 0.00 | 0.15 | 0.12 | 53 | 1016.6 |
| 20260505214604 | 53 | 113 | 0.0 | 5.2 | 0.00 | 0.15 | 0.12 | 54 | 1016.6 |
| 20260505214057 | 52 | 57 | 2.6 | 5.2 | 0.00 | 0.15 | 0.12 | 53 | 1016.6 |
| 20260505213559 | 51 | 331 | 1.7 | 4.3 | 0.00 | 0.15 | 0.12 | 56 | 1016.7 |
| 20260505213057 | 50 | 95 | 1.7 | 4.3 | 0.00 | 0.15 | 0.12 | 55 | 1016.7 |
| 20260505212556 | 51 | 45 | 1.7 | 4.3 | 0.00 | 0.15 | 0.12 | 56 | 1016.7 |
| 20260505212058 | 51 | 74 | 0.0 | 3.5 | 0.00 | 0.15 | 0.12 | 55 | 1016.7 |
| 20260505211634 | 52 | 0 | 0.9 | 3.5 | 0.00 | 0.15 | 0.12 | 52 | 1016.6 |
| 20260505211057 | 53 | 0 | 0.9 | 3.5 | 0.00 | 0.15 | 0.12 | 57 | 1016.6 |
| 20260505210556 | 53 | 0 | 0.9 | 3.5 | 0.00 | 0.15 | 0.12 | 58 | 1016.6 |
| 20260505210058 | 51 | 66 | 0.9 | 3.5 | 0.00 | 0.15 | 0.12 | 58 | 1016.5 |
| 20260505205557 | 51 | 140 | 0.9 | 4.3 | 0.00 | 0.15 | 0.12 | 58 | 1016.6 |
| 20260505205058 | 52 | 0 | 1.7 | 4.3 | 0.00 | 0.15 | 0.12 | 56 | 1016.8 |
| 20260505204559 | 52 | 0 | 0.0 | 2.6 | 0.00 | 0.15 | 0.12 | 62 | 1016.6 |
| 20260505204100 | 51 | 56 | 0.9 | 2.6 | 0.00 | 0.15 | 0.12 | 59 | 1016.6 |
| 20260505203557 | 52 | 259 | 0.0 | 2.6 | 0.00 | 0.15 | 0.12 | 60 | 1016.7 |
| 20260505203126 | 51 | 138 | 0.0 | 2.6 | 0.00 | 0.15 | 0.12 | 64 | 1016.8 |
| 20260505202557 | 50 | 255 | 0.0 | 4.3 | 0.00 | 0.15 | 0.12 | 65 | 1016.8 |
| 20260505202057 | 48 | 240 | 1.7 | 4.3 | 0.00 | 0.15 | 0.12 | 65 | 1016.8 |
| 20260505201556 | 48 | 102 | 1.7 | 4.3 | 0.00 | 0.15 | 0.12 | 69 | 1016.8 |
| 20260505201057 | 48 | 155 | 1.7 | 3.5 | 0.00 | 0.15 | 0.12 | 66 | 1016.7 |
| 20260505200558 | 48 | 248 | 0.9 | 3.5 | 0.00 | 0.15 | 0.12 | 69 | 1017.0 |
| 20260505200058 | 48 | 250 | 0.0 | 2.6 | 0.00 | 0.15 | 0.12 | 67 | 1017.1 |
| 20260505195558 | 48 | 229 | 0.0 | 2.6 | 0.00 | 0.15 | 0.12 | 64 | 1017.1 |
| 20260505195058 | 48 | 174 | 0.9 | 4.3 | 0.00 | 0.15 | 0.12 | 64 | 1017.1 |
| 20260505194558 | 46 | 0 | 1.7 | 4.3 | 0.00 | 0.15 | 0.12 | 67 | 1017.2 |
| 20260505194058 | 46 | 52 | 0.9 | 4.3 | 0.00 | 0.15 | 0.12 | 70 | 1017.2 |
| 20260505193557 | 46 | 42 | 0.0 | 5.2 | 0.00 | 0.15 | 0.12 | 69 | 1017.2 |
| 20260505193054 | 47 | 321 | 1.7 | 5.2 | 0.00 | 0.15 | 0.12 | 68 | 1017.2 |
| 20260505192559 | 48 | 72 | 0.9 | 4.3 | 0.00 | 0.15 | 0.12 | 64 | 1017.2 |
| 20260505192057 | 48 | 0 | 0.9 | 4.3 | 0.00 | 0.15 | 0.12 | 71 | 1017.0 |
| 20260505191558 | 48 | 46 | 0.0 | 4.3 | 0.00 | 0.15 | 0.12 | 71 | 1016.8 |
| 20260505191058 | 48 | 51 | 0.0 | 2.6 | 0.00 | 0.15 | 0.12 | 70 | 1016.8 |
| 20260505190558 | 47 | 0 | 0.0 | 2.6 | 0.00 | 0.15 | 0.12 | 74 | 1016.8 |
| 20260505190059 | 46 | 0 | 0.9 | 2.6 | 0.00 | 0.15 | 0.12 | 74 | 1016.8 |
| 20260505185558 | 46 | 15 | 0.0 | 2.6 | 0.00 | 0.15 | 0.12 | 83 | 1016.7 |
| 20260505185058 | 45 | 79 | 0.9 | 1.7 | 0.00 | 0.15 | 0.12 | 80 | 1016.7 |
| 20260505184558 | 45 | 1 | 0.9 | 1.7 | 0.00 | 0.15 | 0.12 | 82 | 1016.7 |
| 20260505184058 | 44 | 0 | 0.0 | 0.9 | 0.00 | 0.15 | 0.12 | 85 | 1016.7 |
| 20260505183557 | 43 | 0 | 0.0 | 2.6 | 0.00 | 0.15 | 0.12 | 84 | 1016.6 |
| 20260505183102 | 42 | 0 | 0.0 | 2.6 | 0.00 | 0.15 | 0.12 | 84 | 1016.6 |
| 20260505182600 | 42 | 83 | 0.0 | 0.9 | 0.00 | 0.15 | 0.12 | 83 | 1016.5 |
| 20260505182101 | 41 | 0 | 0.0 | 1.7 | 0.00 | 0.15 | 0.12 | 85 | 1016.6 |
| 20260505181555 | 41 | 64 | 0.0 | 1.7 | 0.00 | 0.15 | 0.12 | 86 | 1016.5 |
| 20260505181057 | 41 | 51 | 0.0 | 0.9 | 0.00 | 0.15 | 0.12 | 87 | 1016.4 |
| 20260505180558 | 41 | 0 | 0.0 | 0.9 | 0.00 | 0.15 | 0.12 | 86 | 1016.3 |
| 20260505175558 | 40 | 103 | 0.9 | 1.7 | 0.00 | 0.15 | 0.12 | 88 | 1016.2 |
| 20260505175104 | 40 | 60 | 0.0 | 0.9 | 0.00 | 0.15 | 0.12 | 89 | 1016.1 |
| 20260505174556 | 40 | 0 | 0.0 | 0.9 | 0.00 | 0.15 | 0.12 | 90 | 1016.0 |
| 20260505174057 | 40 | 0 | 0.0 | 1.7 | 0.00 | 0.15 | 0.12 | 91 | 1016.0 |
| 20260505173603 | 40 | 0 | 0.0 | 1.7 | 0.00 | 0.15 | 0.12 | 90 | 1015.9 |
| 20260505173056 | 39 | 51 | 0.0 | 0.9 | 0.00 | 0.15 | 0.12 | 90 | 1015.9 |
| 20260505172600 | 39 | 0 | 0.0 | 0.9 | 0.00 | 0.15 | 0.12 | 91 | 1016.0 |
| 20260505172057 | 38 | 0 | 0.0 | 1.7 | 0.01 | 0.15 | 0.12 | 91 | 1015.9 |
| 20260505171558 | 38 | 0 | 0.9 | 1.7 | 0.01 | 0.15 | 0.12 | 91 | 1016.0 |
| 20260505171058 | 38 | 0 | 0.9 | 0.9 | 0.01 | 0.15 | 0.12 | 91 | 1015.9 |
| 20260505170557 | 38 | 1 | 0.0 | 0.9 | 0.01 | 0.15 | 0.12 | 92 | 1015.9 |
| 20260505170055 | 38 | 0 | 0.0 | 0.9 | 0.01 | 0.15 | 0.12 | 93 | 1015.8 |
| 20260505165557 | 38 | 0 | 0.0 | 0.9 | 0.02 | 0.15 | 0.12 | 93 | 1015.7 |
| 20260505165057 | 37 | 0 | 0.0 | 0.0 | 0.02 | 0.15 | 0.12 | 93 | 1016.0 |
| 20260505164556 | 37 | 0 | 0.0 | 0.0 | 0.02 | 0.15 | 0.12 | 93 | 1015.9 |
| 20260505164059 | 37 | 0 | 0.0 | 0.9 | 0.02 | 0.15 | 0.12 | 93 | 1015.9 |
| 20260505163557 | 36 | 0 | 0.0 | 0.9 | 0.02 | 0.15 | 0.12 | 93 | 1015.7 |
| 20260505163055 | 36 | 53 | 0.0 | 0.9 | 0.02 | 0.15 | 0.12 | 93 | 1015.7 |
| 20260505162558 | 36 | 0 | 0.0 | 0.9 | 0.02 | 0.15 | 0.12 | 93 | 1015.6 |
| 20260505162058 | 36 | 55 | 0.0 | 0.9 | 0.01 | 0.14 | 0.11 | 93 | 1015.6 |
| 20260505161558 | 36 | 55 | 0.0 | 0.0 | 0.02 | 0.14 | 0.11 | 92 | 1015.5 |
| 20260505161056 | 36 | 0 | 0.0 | 0.9 | 0.03 | 0.14 | 0.11 | 93 | 1015.4 |
| 20260505160558 | 36 | 0 | 0.0 | 1.7 | 0.03 | 0.14 | 0.11 | 93 | 1015.5 |
| 20260505153057 | 36 | 300 | 0.0 | 1.7 | 0.05 | 0.13 | 0.10 | 92 | 1015.0 |
| 20260505152601 | 36 | 0 | 0.0 | 0.9 | 0.06 | 0.13 | 0.10 | 92 | 1014.9 |
| 20260505152057 | 36 | 0 | 0.0 | 0.0 | 0.06 | 0.13 | 0.10 | 92 | 1014.7 |
| 20260505151557 | 36 | 0 | 0.0 | 0.0 | 0.06 | 0.12 | 0.09 | 92 | 1014.8 |
| 20260505151057 | 36 | 0 | 0.0 | 0.0 | 0.05 | 0.11 | 0.08 | 92 | 1014.7 |
| 20260505150557 | 35 | 0 | 0.0 | 0.0 | 0.05 | 0.11 | 0.08 | 92 | 1014.5 |
| 20260505140557 | 36 | 0 | 0.0 | 0.0 | 0.02 | 0.06 | 0.03 | 90 | 1014.2 |
| 20260505140123 | 36 | 0 | 0.0 | 0.0 | 0.01 | 0.05 | 0.02 | 90 | 1014.0 |
| 20260505130103 | 36 | 82 | 0.9 | 0.9 | 0.00 | 0.04 | 0.01 | 91 | 1013.3 |
| 20260505124602 | 36 | 157 | 0.0 | 0.9 | 0.00 | 0.04 | 0.01 | 92 | 1013.3 |
| 20260505124100 | 36 | 173 | 0.0 | 0.9 | 0.00 | 0.04 | 0.01 | 92 | 1013.3 |
| 20260505123557 | 36 | 0 | 0.0 | 0.0 | 0.00 | 0.04 | 0.01 | 92 | 1013.3 |
| 20260505123101 | 36 | 0 | 0.0 | 0.0 | 0.00 | 0.04 | 0.01 | 92 | 1013.2 |
| 20260505122557 | 36 | 0 | 0.0 | 0.0 | 0.00 | 0.04 | 0.01 | 92 | 1013.2 |
| 20260505122057 | 36 | 0 | 0.0 | 0.0 | 0.00 | 0.04 | 0.01 | 92 | 1013.3 |
| 20260505121601 | 36 | 0 | 0.0 | 0.9 | 0.00 | 0.04 | 0.01 | 92 | 1013.4 |
| 20260505121057 | 36 | 260 | 0.0 | 0.9 | 0.00 | 0.04 | 0.01 | 93 | 1013.4 |
| 20260505120557 | 36 | 0 | 0.0 | 0.9 | 0.00 | 0.04 | 0.01 | 93 | 1013.2 |
| 20260505120112 | 36 | 0 | 0.0 | 0.9 | 0.00 | 0.04 | 0.01 | 92 | 1013.5 |
| 20260505115556 | 36 | 0 | 0.0 | 0.9 | 0.00 | 0.04 | 0.01 | 92 | 1013.5 |
| 20260505115057 | 36 | 0 | 0.0 | 0.0 | 0.00 | 0.04 | 0.01 | 92 | 1013.4 |
| 20260505114601 | 36 | 0 | 0.0 | 0.0 | 0.00 | 0.04 | 0.01 | 92 | 1013.5 |
| 20260505114057 | 36 | 0 | 0.0 | 0.0 | 0.00 | 0.04 | 0.01 | 93 | 1013.5 |
| 20260505113601 | 36 | 0 | 0.0 | 0.0 | 0.00 | 0.04 | 0.01 | 93 | 1013.6 |
| 20260505113107 | 36 | 0 | 0.0 | 0.0 | 0.00 | 0.04 | 0.01 | 93 | 1013.5 |
| 20260505112558 | 36 | 0 | 0.0 | 0.0 | 0.00 | 0.04 | 0.01 | 93 | 1013.7 |
| 20260505112057 | 36 | 0 | 0.0 | 0.0 | 0.00 | 0.04 | 0.01 | 93 | 1013.7 |
| 20260505111559 | 36 | 0 | 0.0 | 0.0 | 0.00 | 0.04 | 0.01 | 93 | 1013.7 |
| 20260505111057 | 36 | 0 | 0.0 | 0.0 | 0.00 | 0.04 | 0.01 | 93 | 1013.7 |
| 20260505110557 | 36 | 0 | 0.0 | 0.0 | 0.00 | 0.04 | 0.01 | 93 | 1013.5 |
| 20260505102058 | 36 | 0 | 0.0 | 0.0 | 0.01 | 0.04 | 0.01 | 93 | 1013.5 |
| 20260505101604 | 36 | 0 | 0.0 | 0.0 | 0.01 | 0.04 | 0.01 | 93 | 1013.6 |
| 20260505101059 | 36 | 0 | 0.0 | 0.0 | 0.01 | 0.04 | 0.01 | 93 | 1013.7 |
| 20260505100559 | 36 | 0 | 0.0 | 0.0 | 0.01 | 0.04 | 0.01 | 93 | 1013.7 |
| 20260505100101 | 36 | 0 | 0.0 | 0.0 | 0.01 | 0.04 | 0.01 | 93 | 1013.7 |
| 20260505095559 | 36 | 0 | 0.0 | 0.0 | 0.01 | 0.04 | 0.01 | 93 | 1013.7 |
| 20260505095121 | 36 | 0 | 0.0 | 0.0 | 0.01 | 0.04 | 0.01 | 93 | 1013.7 |
| 20260505094602 | 36 | 0 | 0.0 | 0.0 | 0.01 | 0.04 | 0.01 | 93 | 1013.9 |
| 20260505094103 | 36 | 0 | 0.0 | 0.0 | 0.01 | 0.04 | 0.01 | 92 | 1014.0 |
| 20260505093559 | 36 | 0 | 0.0 | 0.0 | 0.01 | 0.04 | 0.01 | 92 | 1014.0 |
| 20260505093059 | 36 | 0 | 0.0 | 0.0 | 0.01 | 0.04 | 0.01 | 92 | 1014.1 |
| 20260505092559 | 36 | 0 | 0.0 | 0.9 | 0.00 | 0.03 | 0.00 | 92 | 1014.1 |
| 20260505092059 | 36 | 0 | 0.0 | 0.9 | 0.00 | 0.03 | 0.00 | 92 | 1014.1 |
| 20260505091611 | 36 | 156 | 0.0 | 0.9 | 0.00 | 0.03 | 0.00 | 92 | 1014.2 |
| 20260505091058 | 36 | 77 | 0.0 | 2.6 | 0.00 | 0.03 | 0.00 | 92 | 1014.4 |
| 20260505090559 | 36 | 72 | 0.0 | 2.6 | 0.00 | 0.03 | 0.00 | 92 | 1014.3 |
| 20260505085603 | 36 | 58 | 0.9 | 4.3 | 0.00 | 0.03 | 0.00 | 92 | 1014.4 |
| 20260505085059 | 36 | 54 | 1.7 | 4.3 | 0.00 | 0.03 | 0.00 | 92 | 1014.4 |
| 20260505084607 | 36 | 71 | 0.0 | 1.7 | 0.00 | 0.03 | 0.00 | 92 | 1014.5 |
| 20260505084059 | 36 | 72 | 0.0 | 3.5 | 0.00 | 0.03 | 0.00 | 92 | 1014.5 |
| 20260505083603 | 35 | 72 | 1.7 | 5.2 | 0.00 | 0.03 | 0.00 | 92 | 1014.5 |
| 20260505083107 | 35 | 79 | 2.6 | 5.2 | 0.00 | 0.03 | 0.00 | 92 | 1014.5 |
| 20260505082559 | 35 | 98 | 3.5 | 10.4 | 0.00 | 0.03 | 0.00 | 92 | 1014.6 |
| 20260505082058 | 35 | 129 | 2.6 | 10.4 | 0.00 | 0.03 | 0.00 | 91 | 1014.7 |
| 20260505081558 | 35 | 65 | 3.5 | 9.6 | 0.00 | 0.03 | 0.00 | 91 | 1014.6 |
| 20260505081059 | 36 | 91 | 2.6 | 8.7 | 0.00 | 0.03 | 0.00 | 90 | 1014.6 |
| 20260505080558 | 36 | 92 | 4.3 | 8.7 | 0.00 | 0.03 | 0.00 | 90 | 1014.7 |
| 20260505080057 | 36 | 72 | 3.5 | 9.6 | 0.00 | 0.03 | 0.00 | 90 | 1014.6 |
| 20260505075559 | 36 | 89 | 4.3 | 9.6 | 0.00 | 0.03 | 0.00 | 89 | 1014.6 |
| 20260505075059 | 36 | 74 | 4.3 | 10.4 | 0.00 | 0.03 | 0.00 | 88 | 1014.6 |
| 20260505074559 | 36 | 65 | 7.0 | 10.4 | 0.00 | 0.03 | 0.00 | 88 | 1014.7 |
| 20260505074057 | 37 | 79 | 3.5 | 7.8 | 0.00 | 0.03 | 0.00 | 87 | 1014.8 |
| 20260505073557 | 37 | 92 | 3.5 | 6.1 | 0.00 | 0.03 | 0.00 | 87 | 1014.7 |
| 20260505073103 | 37 | 82 | 1.7 | 7.8 | 0.00 | 0.03 | 0.00 | 87 | 1014.8 |
| 20260505072602 | 37 | 100 | 2.6 | 8.7 | 0.00 | 0.03 | 0.00 | 87 | 1014.7 |
| 20260505072100 | 37 | 86 | 3.5 | 8.7 | 0.00 | 0.03 | 0.00 | 86 | 1014.7 |
| 20260505071601 | 37 | 72 | 5.2 | 8.7 | 0.00 | 0.03 | 0.00 | 85 | 1014.7 |
| 20260505071058 | 38 | 82 | 1.7 | 6.1 | 0.00 | 0.03 | 0.00 | 84 | 1014.8 |
| 20260505070601 | 38 | 68 | 2.6 | 6.1 | 0.00 | 0.03 | 0.00 | 84 | 1014.8 |
| 20260505070106 | 38 | 77 | 2.6 | 6.1 | 0.00 | 0.03 | 0.00 | 83 | 1014.7 |
| 20260505065558 | 38 | 63 | 2.6 | 5.2 | 0.00 | 0.03 | 0.03 | 83 | 1014.7 |
| 20260505065057 | 38 | 93 | 1.7 | 3.5 | 0.00 | 0.03 | 0.03 | 82 | 1014.8 |
| 20260505064559 | 38 | 82 | 1.7 | 4.3 | 0.00 | 0.03 | 0.03 | 83 | 1014.8 |
| 20260505064057 | 38 | 229 | 1.7 | 5.2 | 0.00 | 0.03 | 0.03 | 83 | 1014.8 |
| 20260505063557 | 38 | 130 | 2.6 | 5.2 | 0.00 | 0.03 | 0.03 | 84 | 1014.8 |
| 20260505063059 | 38 | 101 | 0.9 | 6.1 | 0.00 | 0.03 | 0.03 | 86 | 1014.7 |
| 20260505062559 | 38 | 91 | 2.6 | 6.1 | 0.00 | 0.03 | 0.03 | 86 | 1015.0 |
| 20260505062101 | 38 | 70 | 2.6 | 7.0 | 0.00 | 0.03 | 0.03 | 86 | 1015.0 |
| 20260505061618 | 39 | 114 | 3.5 | 7.8 | 0.00 | 0.03 | 0.03 | 86 | 1015.0 |
| 20260505061057 | 39 | 98 | 3.5 | 8.7 | 0.00 | 0.03 | 0.03 | 87 | 1015.0 |
| 20260505060559 | 39 | 119 | 2.6 | 8.7 | 0.00 | 0.03 | 0.03 | 86 | 1015.0 |
| 20260505060103 | 39 | 139 | 3.5 | 7.8 | 0.00 | 0.03 | 0.03 | 86 | 1014.8 |
| 20260505055557 | 39 | 109 | 3.5 | 5.2 | 0.00 | 0.03 | 0.03 | 86 | 1014.9 |
| 20260505055058 | 39 | 120 | 2.6 | 4.3 | 0.00 | 0.03 | 0.03 | 85 | 1014.9 |
| 20260505054559 | 39 | 136 | 1.7 | 4.3 | 0.00 | 0.03 | 0.03 | 85 | 1014.9 |
| 20260505054057 | 39 | 115 | 1.7 | 4.3 | 0.00 | 0.03 | 0.03 | 85 | 1014.9 |
| 20260505053557 | 39 | 146 | 0.0 | 1.7 | 0.00 | 0.03 | 0.03 | 85 | 1014.8 |
| 20260505053059 | 39 | 68 | 0.0 | 1.7 | 0.00 | 0.03 | 0.03 | 84 | 1015.0 |
| 20260505052557 | 39 | 184 | 0.0 | 0.0 | 0.00 | 0.03 | 0.03 | 83 | 1014.7 |
| 20260505052058 | 40 | 0 | 0.0 | 0.9 | 0.00 | 0.03 | 0.03 | 83 | 1014.7 |
| 20260505051558 | 40 | 0 | 0.0 | 0.9 | 0.00 | 0.03 | 0.03 | 82 | 1014.7 |
| 20260505051058 | 40 | 0 | 0.0 | 0.0 | 0.00 | 0.03 | 0.03 | 81 | 1014.7 |
| 20260505050558 | 40 | 0 | 0.0 | 0.0 | 0.00 | 0.03 | 0.03 | 80 | 1014.8 |
| 20260505041604 | 41 | 140 | 0.9 | 1.7 | 0.00 | 0.03 | 0.03 | 77 | 1014.4 |
| 20260505041058 | 40 | 135 | 0.0 | 2.6 | 0.00 | 0.03 | 0.03 | 77 | 1014.4 |
| 20260505040558 | 40 | 101 | 0.9 | 2.6 | 0.00 | 0.03 | 0.03 | 78 | 1014.4 |
| 20260505040104 | 41 | 0 | 0.9 | 2.6 | 0.00 | 0.03 | 0.03 | 77 | 1014.3 |
| 20260505035557 | 41 | 117 | 0.0 | 2.6 | 0.00 | 0.03 | 0.03 | 76 | 1014.3 |
| 20260505035057 | 41 | 84 | 0.0 | 3.5 | 0.00 | 0.03 | 0.03 | 74 | 1014.2 |
| 20260505034609 | 41 | 68 | 0.0 | 4.3 | 0.00 | 0.03 | 0.03 | 75 | 1014.1 |
| 20260505034059 | 41 | 222 | 0.9 | 4.3 | 0.00 | 0.03 | 0.03 | 75 | 1014.2 |
| 20260505033557 | 41 | 135 | 1.7 | 4.3 | 0.00 | 0.03 | 0.03 | 78 | 1014.2 |
| 20260505033105 | 41 | 108 | 0.9 | 3.5 | 0.00 | 0.03 | 0.03 | 79 | 1014.1 |
| 20260505032558 | 41 | 63 | 0.9 | 4.3 | 0.00 | 0.03 | 0.03 | 80 | 1013.9 |
| 20260505032058 | 41 | 79 | 0.9 | 4.3 | 0.00 | 0.03 | 0.03 | 79 | 1013.7 |
| 20260505031558 | 41 | 113 | 2.6 | 5.2 | 0.00 | 0.03 | 0.03 | 79 | 1013.7 |
| 20260505031057 | 41 | 89 | 1.7 | 5.2 | 0.00 | 0.03 | 0.03 | 80 | 1013.7 |
| 20260505030558 | 41 | 68 | 0.9 | 4.3 | 0.00 | 0.03 | 0.03 | 79 | 1013.7 |
| 20260505030112 | 41 | 70 | 2.6 | 4.3 | 0.00 | 0.03 | 0.03 | 81 | 1013.6 |
| 20260505025557 | 41 | 71 | 1.7 | 2.6 | 0.01 | 0.03 | 0.03 | 80 | 1013.5 |
| 20260505025057 | 41 | 61 | 1.7 | 2.6 | 0.01 | 0.03 | 0.03 | 79 | 1013.5 |
| 20260505024602 | 41 | 70 | 0.0 | 1.7 | 0.02 | 0.03 | 0.03 | 77 | 1013.5 |
| 20260505024057 | 41 | 75 | 0.9 | 1.7 | 0.02 | 0.03 | 0.03 | 79 | 1013.6 |
| 20260505023557 | 41 | 0 | 0.0 | 0.9 | 0.03 | 0.03 | 0.03 | 81 | 1013.6 |
| 20260505023058 | 41 | 148 | 0.0 | 0.9 | 0.03 | 0.03 | 0.03 | 80 | 1013.6 |
| 20260505022558 | 41 | 159 | 0.0 | 2.6 | 0.03 | 0.03 | 0.03 | 80 | 1013.8 |
| 20260505022102 | 41 | 165 | 0.0 | 2.6 | 0.03 | 0.03 | 0.03 | 80 | 1013.8 |